• Processing (Info)

  • MPEC 2012-S86 : 2012 SA59

    The following Minor Planet Electronic Circular may be linked-to from your own Web pages, but must not otherwise be redistributed electronically.

    A form allowing access to any MPEC is at the bottom of this page.


    Read MPEC 2012-S85 Read MPEC 2012-S87


    M.P.E.C. 2012-S86                                Issued 2012 Sept. 29, 15:32 UT
    
         The Minor Planet Electronic Circulars contain information on unusual
             minor planets and routine data on comets.  They are published
       on behalf of Commission 20 of the International Astronomical Union by the
              Minor Planet Center, Smithsonian Astrophysical Observatory,
                              Cambridge, MA 02138, U.S.A.
    
                 Prepared using the Tamkin Foundation Computer Network
    
                                  MPC@CFA.HARVARD.EDU
                URL https://www.minorplanetcenter.net/    ISSN 1523-6714
    
                                       2012 SA59
    
    Observations:
         K12S59A  C2012 09 27.25559 01 43 46.56 +42 17 34.8          19.0 VrES086703
         K12S59A  C2012 09 27.26334 01 43 47.10 +42 17 49.3          19.1 VrES086703
         K12S59A  C2012 09 27.27068 01 43 47.60 +42 18 04.9          19.9 VrES086703
         K12S59A  C2012 09 27.29516 01 43 49.53 +42 18 53.1          18.8 VrES086G96
         K12S59A  C2012 09 27.29733 01 43 49.71 +42 18 57.6          19.0 VrES086G96
         K12S59A* C2012 09 27.30473 01 43 50.26 +42 19 11.9          18.9 VrES086G96
         K12S59A  C2012 09 27.30530 01 43 50.34 +42 19 12.8          19.0 VrES086G96
         K12S59A  C2012 09 27.30586 01 43 50.37 +42 19 13.9          18.9 VrES086G96
         K12S59A  C2012 09 27.30641 01 43 50.41 +42 19 15.2          19.0 VrES086G96
         K12S59A  C2012 09 27.34882 01 43 53.69 +42 20 37.4          19.1 VrES086703
         K12S59A  C2012 09 27.34948 01 43 53.77 +42 20 40.2          18.7 VrES086703
         K12S59A  C2012 09 27.35017 01 43 53.76 +42 20 40.0          19.1 VrES086703
         K12S59A  C2012 09 27.35083 01 43 53.77 +42 20 42.1          19.1 VrES086703
         K12S59A KC2012 09 27.83365 01 44 37.41 +42 35 54.9                uES086J95
         K12S59A KC2012 09 27.83569 01 44 37.60 +42 35 58.5                uES086J95
         K12S59A KC2012 09 27.83774 01 44 37.81 +42 36 02.8          18.4 RuES086J95
         K12S59A KC2012 09 28.82641 01 46 04.90 +43 07 28.2          18.9 VuES086C43
         K12S59A KC2012 09 28.84436 01 46 06.35 +43 08 04.0          19.3 VuES086C43
         K12S59A KC2012 09 28.85209 01 46 07.08 +43 08 18.8          18.7 VuES086C43
         K12S59A KC2012 09 28.87406 01 46 08.93 +43 09 00.9          19.4 VuES086C43
         K12S59A KC2012 09 28.91947 01 46 12.94 +43 10 26.5          19.0 VoES086J41
         K12S59A KC2012 09 28.92381 01 46 13.31 +43 10 34.8                oES086J41
         K12S59A KC2012 09 28.92854 01 46 13.73 +43 10 43.9                oES086J41
         K12S59A KC2012 09 29.08908 01 46 26.75 +43 15 50.7                uES086J95
         K12S59A KC2012 09 29.09542 01 46 27.26 +43 16 03.0                uES086J95
         K12S59A KC2012 09 29.10117 01 46 27.72 +43 16 13.5          18.7 RuES086J95
         K12S59A KC2012 09 29.29848 01 46 45.69 +43 22 30.3          19.0 RuES086H36
         K12S59A KC2012 09 29.30283 01 46 46.02 +43 22 39.5          18.0 RuES086H36
         K12S59A KC2012 09 29.30652401 46 46.14 +43 22 45.8          18.8 VvES086H21
         K12S59A KC2012 09 29.30716 01 46 46.38 +43 22 47.1          18.5 RuES086H36
         K12S59A KC2012 09 29.31033501 46 46.41 +43 22 52.9          18.5 VvES086H21
         K12S59A KC2012 09 29.31143 01 46 46.70 +43 22 55.2          18.1 RuES086H36
         K12S59A KC2012 09 29.31414001 46 46.73 +43 22 59.8          18.3 VvES086H21
         K12S59A KC2012 09 29.31576 01 46 47.10 +43 23 03.2          18.6 RuES086H36
         K12S59A KC2012 09 29.31781401 46 47.02 +43 23 07.0          18.6 VvES086H21
    
    Observer details:
    703 Catalina Sky Survey.  Observer A. Boattini.  Measurers A. Boattini,
        E. J. Christensen, A. R. Gibbs, A. D. Grauer, R. E. Hill, R. A. Kowalski,
        S. M. Larson, R. H. McNaught.  0.68-m Schmidt + CCD.
    C43 Hoyerswerda.  Observer P. Lindner.  0.30-m f/6.3 Schmidt-Cassegrain + CCD.
    G96 Mt. Lemmon Survey.  Observer R. E. Hill.  Measurers A. Boattini,
        E. J. Christensen, A. R. Gibbs, A. D. Grauer, R. E. Hill, R. A. Kowalski,
        S. M. Larson, R. H. McNaught.  1.5-m reflector + CCD.
    H21 Astronomical Research Observatory, Westfield.  Observer R. Holmes.
        Measurers T. Vorobjov, L. Buzzi, S. Foglia.  0.61-m f/4.0 astrograph + CCD.
    H36 Sandlot Observatory, Scranton.  Observer G. Hug.  0.56-m reflector + CCD.
    J41 Raheny.  Observer D. Grennan.  0.36-m f/4.9 Schmidt-Cassegrain + CCD.
    J95 Great Shefford.  Observer P. Birtwhistle.  0.40-m f/6.0 Schmidt-Cassegrain
        + CCD.
    
    Orbital elements:
    2012 SA59                                                Earth MOID = 0.3388 AU
    Epoch 2012 Sept. 30.0 TT = JDT 2456200.5                MPC
    M 352.80708              (2000.0)            P               Q
    n   0.23352909     Peri.   96.51306     +0.73946176     -0.65975314
    a   2.6116124      Node   304.86315     +0.53499247     +0.69662410
    e   0.5111387      Incl.    9.39018     +0.40863109     +0.28185218
    P   4.22           H   18.9           G   0.15           U   8
    Residuals in seconds of arc
    120927 703  1.8+  0.5-    120927 703  1.2-  0.7+    120929 J95  0.1+  0.2+
    120927 703  0.9+  1.3-    120927 J95  0.2-  0.2+    120929 J95  0.0   0.1-
    120927 703  0.0   0.1-    120927 J95  0.1-  0.2-    120929 H36  0.1-  0.5-
    120927 G96  0.0   0.0     120927 J95  0.3+  0.0     120929 H36  0.2-  0.5+
    120927 G96  0.1+  0.2+    120928 C43  0.2-  0.5-    120929 H21  0.2+  0.1+
    120927 G96  0.3-  0.1+    120928 C43  1.0-  0.4+    120929 H36  0.0   0.1-
    120927 G96  0.1+  0.1-    120928 C43  0.1-  0.2+    120929 H21  0.1-  0.0
    120927 G96  0.0   0.1-    120928 C43  0.0   0.3-    120929 H36  0.2-  0.0
    120927 G96  0.1-  0.1+    120928 J41  0.2-  0.4+    120929 H21  0.1+  0.2-
    120927 703  0.3-  0.2-    120928 J41  0.1-  0.3+    120929 H36  0.5+  0.2-
    120927 703  0.0   1.4+    120928 J41  0.1+  0.2+    120929 H21  0.1+  0.1+
    120927 703  0.7-  0.2-    120929 J95  0.1+  0.2-
    
    Ephemeris:
    2012 SA59                a,e,i = 2.61, 0.51, 9                   q = 1.2767
    Date    TT    R. A. (2000) Decl.     Delta      r     Elong.  Phase     V
    2012 08 30    01 03 07.3 +26 24 52   0.5653  1.4366   129.4    32.9    19.8
    ...
    2012 09 14    01 24 38.4 +34 51 50   0.4724  1.3723   133.0    32.4    19.3
    ...
    2012 09 22    01 36 07.1 +39 24 36   0.4345  1.3436   134.3    32.3    19.1
    ...
    2012 09 28    01 44 50.8 +42 41 22   0.4112  1.3251   135.0    32.3    18.9
    2012 09 29    01 46 19.1 +43 13 04   0.4077  1.3223   135.1    32.3    18.9
    2012 09 30    01 47 47.6 +43 44 23   0.4043  1.3195   135.2    32.3    18.9
    ...
    2012 10 06    01 56 44.9 +46 42 31   0.3862  1.3047   135.8    32.3    18.8
    ...
    2012 10 14    02 08 57.6 +50 05 51   0.3675  1.2897   136.7    32.0    18.6
    ...
    2012 10 29    02 32 52.1 +53 59 11   0.3474  1.2769   139.3    30.5    18.4
    
    A. U. Tomatic                (C) Copyright 2012 MPC           M.P.E.C. 2012-S86
    

    Read MPEC 2012-S85 Read MPEC 2012-S87


    MPEC number:

    Enter an MPEC number in one of the following forms:

    • 1997-B01 (the full form)
    • J97B01 (the packed version of the full form)
    • B01 (the abbreviated form)